• In Czech Republic
  • List of Countries
  • For 7 days
  • Water Temperature
  • Satellite Maps
  • Weather Map
  • Weather Widgets
  • user-avatar
    Login

    Hourly Weather Tarin Kowt

    Today, 25 February, Sunday

    Time Temperature Precipitation Wind Pressure Humidity
    00:00 +9°C° 0 mm 2 mps 617 mmHg 52%
    01:00 +9°C° 0 mm 2 mps 617 mmHg 51%
    02:00 +9°C° 0 mm 2 mps 617 mmHg 50%
    03:00 +8°C° 0 mm 2 mps 617 mmHg 50%
    04:00 +8°C° 0 mm 2 mps 617 mmHg 49%
    05:00 +8°C° 0 mm 3 mps 617 mmHg 47%
    06:00 +8°C° 0 mm 3 mps 618 mmHg 46%
    07:00 +9°C° 0 mm 3 mps 618 mmHg 45%
    08:00 +10°C° 0 mm 3 mps 619 mmHg 40%
    09:00 +12°C° 0 mm 3 mps 619 mmHg 36%
    10:00 +15°C° 0 mm 2 mps 620 mmHg 31%
    11:00 +16°C° 0 mm 3 mps 620 mmHg 31%
    12:00 +17°C° 0 mm 4 mps 619 mmHg 30%
    13:00 +17°C° 0 mm 5 mps 619 mmHg 30%
    14:00 +17°C° 0 mm 5 mps 619 mmHg 31%
    15:00 +17°C° 0 mm 6 mps 618 mmHg 33%
    16:00 +17°C° 0 mm 5 mps 618 mmHg 35%
    17:00 +16°C° 1.1 mm 5 mps 618 mmHg 44%
    18:00 +15°C° 1.1 mm 4 mps 618 mmHg 54%
    19:00 +14°C° 1.1 mm 4 mps 617 mmHg 63%
    20:00 +13°C° 1.6 mm 3 mps 617 mmHg 66%
    21:00 +13°C° 1.6 mm 3 mps 617 mmHg 70%
    22:00 +13°C° 1.6 mm 2 mps 617 mmHg 73%
    23:00 +12°C° 0.8 mm 3 mps 617 mmHg 73%

    Tomorrow, 26 February, Monday

    Time Temperature Precipitation Wind Pressure Humidity
    00:00 +12°C° 0.8 mm 3 mps 617 mmHg 72%
    01:00 +12°C° 0.8 mm 4 mps 617 mmHg 71%
    02:00 +11°C° 0.3 mm 3 mps 617 mmHg 71%
    03:00 +11°C° 0.3 mm 3 mps 617 mmHg 71%
    04:00 +12°C° 0.3 mm 2 mps 616 mmHg 71%
    05:00 +12°C° 0.5 mm 2 mps 616 mmHg 71%
    06:00 +10°C° 0.5 mm 3 mps 616 mmHg 72%
    07:00 +10°C° 0.5 mm 3 mps 616 mmHg 72%
    08:00 +10°C° 0.7 mm 3 mps 616 mmHg 71%
    09:00 +10°C° 0.7 mm 4 mps 617 mmHg 70%
    10:00 +10°C° 0.7 mm 4 mps 617 mmHg 69%
    11:00 +10°C° 0.3 mm 5 mps 617 mmHg 64%
    12:00 +11°C° 0.3 mm 6 mps 617 mmHg 59%
    13:00 +12°C° 0.3 mm 7 mps 617 mmHg 54%
    14:00 +12°C° 2 mm 7 mps 616 mmHg 57%
    15:00 +11°C° 2 mm 7 mps 616 mmHg 59%
    16:00 +11°C° 2 mm 6 mps 616 mmHg 62%
    17:00 +12°C° 2.2 mm 5 mps 616 mmHg 65%
    18:00 +11°C° 2.2 mm 4 mps 616 mmHg 68%
    19:00 +12°C° 2.2 mm 2 mps 617 mmHg 70%
    20:00 +10°C° 0.5 mm 2 mps 617 mmHg 72%
    21:00 +10°C° 0.5 mm 2 mps 617 mmHg 73%
    22:00 +9°C° 0.5 mm 2 mps 617 mmHg 74%
    23:00 +9°C° 0.1 mm 2 mps 617 mmHg 74%

    Day after tomorrow, 27 February, Tuesday

    Time Temperature Precipitation Wind Pressure Humidity
    00:00 +9°C° 0.1 mm 2 mps 617 mmHg 75%
    01:00 +9°C° 0.1 mm 2 mps 617 mmHg 75%
    02:00 +9°C° 0 mm 2 mps 617 mmHg 75%
    03:00 +8°C° 0 mm 2 mps 616 mmHg 75%
    04:00 +8°C° 0 mm 2 mps 616 mmHg 75%
    05:00 +8°C° 0 mm 2 mps 617 mmHg 73%
    06:00 +8°C° 0 mm 2 mps 617 mmHg 72%
    07:00 +8°C° 0 mm 2 mps 617 mmHg 71%
    08:00 +10°C° 0 mm 2 mps 618 mmHg 64%
    09:00 +12°C° 0 mm 2 mps 618 mmHg 58%
    10:00 +14°C° 0 mm 2 mps 619 mmHg 51%
    11:00 +15°C° 0 mm 2 mps 619 mmHg 47%
    12:00 +15°C° 0 mm 2 mps 619 mmHg 43%
    13:00 +16°C° 0 mm 2 mps 618 mmHg 39%
    14:00 +16°C° 0 mm 2 mps 618 mmHg 38%
    15:00 +16°C° 0 mm 2 mps 618 mmHg 37%
    16:00 +17°C° 0 mm 2 mps 618 mmHg 36%
    17:00 +16°C° 0 mm 2 mps 618 mmHg 41%
    18:00 +15°C° 0 mm 1 mps 618 mmHg 46%
    19:00 +14°C° 0 mm 1 mps 617 mmHg 51%
    20:00 +14°C° 0 mm 1 mps 617 mmHg 52%
    21:00 +13°C° 0 mm 1 mps 617 mmHg 54%
    22:00 +13°C° 0 mm 2 mps 617 mmHg 55%
    23:00 +12°C° 0.1 mm 2 mps 617 mmHg 56%

    28 February, Wednesday

    Time Temperature Precipitation Wind Pressure Humidity
    00:00 +12°C° 0.1 mm 2 mps 617 mmHg 58%
    01:00 +12°C° 0.1 mm 2 mps 617 mmHg 59%
    02:00 +10°C° 0.1 mm 2 mps 617 mmHg 60%
    03:00 +10°C° 0.1 mm 2 mps 616 mmHg 61%
    04:00 +10°C° 0.1 mm 2 mps 616 mmHg 62%
    05:00 +10°C° 0.1 mm 2 mps 616 mmHg 61%
    06:00 +10°C° 0.1 mm 2 mps 617 mmHg 61%
    07:00 +10°C° 0.1 mm 2 mps 617 mmHg 61%
    08:00 +12°C° 0.1 mm 2 mps 618 mmHg 57%
    09:00 +12°C° 0.1 mm 3 mps 618 mmHg 53%
    10:00 +13°C° 0.1 mm 3 mps 618 mmHg 49%
    11:00 +13°C° 0.2 mm 3 mps 618 mmHg 49%
    12:00 +15°C° 0.2 mm 2 mps 618 mmHg 49%
    13:00 +15°C° 0.2 mm 2 mps 617 mmHg 49%
    14:00 +15°C° 0.1 mm 2 mps 617 mmHg 48%
    15:00 +14°C° 0.1 mm 3 mps 617 mmHg 48%
    16:00 +14°C° 0.1 mm 3 mps 616 mmHg 48%
    17:00 +14°C° 0.3 mm 3 mps 616 mmHg 51%
    18:00 +14°C° 0.3 mm 2 mps 616 mmHg 55%
    19:00 +13°C° 0.3 mm 2 mps 616 mmHg 59%
    20:00 +13°C° 0.3 mm 2 mps 616 mmHg 60%
    21:00 +12°C° 0.3 mm 2 mps 616 mmHg 61%
    22:00 +12°C° 0.3 mm 2 mps 616 mmHg 62%
    23:00 +12°C° 0.4 mm 2 mps 616 mmHg 65%

    1 March, Thursday

    Time Temperature Precipitation Wind Pressure Humidity
    00:00 +10°C° 0.4 mm 2 mps 615 mmHg 67%
    01:00 +10°C° 0.4 mm 2 mps 615 mmHg 69%
    02:00 +10°C° 0.4 mm 2 mps 615 mmHg 71%
    03:00 +10°C° 0.4 mm 2 mps 614 mmHg 73%
    04:00 +9°C° 0.4 mm 2 mps 614 mmHg 75%
    05:00 +9°C° 0.1 mm 2 mps 614 mmHg 75%
    06:00 +9°C° 0.1 mm 2 mps 615 mmHg 76%
    07:00 +9°C° 0.1 mm 2 mps 615 mmHg 76%
    08:00 +10°C° 0.3 mm 2 mps 615 mmHg 71%
    09:00 +12°C° 0.3 mm 2 mps 616 mmHg 67%
    10:00 +13°C° 0.3 mm 2 mps 616 mmHg 63%
    11:00 +13°C° 1.2 mm 2 mps 616 mmHg 60%
    12:00 +13°C° 1.2 mm 3 mps 615 mmHg 57%
    13:00 +14°C° 1.2 mm 3 mps 615 mmHg 54%
    14:00 +15°C° 1.3 mm 2 mps 615 mmHg 52%
    15:00 +15°C° 1.3 mm 2 mps 614 mmHg 50%
    16:00 +15°C° 1.3 mm 2 mps 614 mmHg 48%
    17:00 +15°C° 0.5 mm 2 mps 614 mmHg 52%
    18:00 +14°C° 0.5 mm 2 mps 614 mmHg 56%
    19:00 +13°C° 0.5 mm 2 mps 614 mmHg 60%
    20:00 +13°C° 0.2 mm 2 mps 614 mmHg 61%
    21:00 +12°C° 0.2 mm 2 mps 614 mmHg 62%
    22:00 +12°C° 0.2 mm 2 mps 614 mmHg 64%
    23:00 +12°C° 0.1 mm 2 mps 614 mmHg 63%

    2 March, Friday

    Time Temperature Precipitation Wind Pressure Humidity
    00:00 +12°C° 0.1 mm 2 mps 614 mmHg 63%
    01:00 +10°C° 0.1 mm 2 mps 614 mmHg 63%
    02:00 +10°C° 0.2 mm 2 mps 614 mmHg 63%
    03:00 +11°C° 0.2 mm 1 mps 613 mmHg 63%
    04:00 +11°C° 0.2 mm 1 mps 613 mmHg 63%
    05:00 +11°C° 0.2 mm 1 mps 614 mmHg 63%
    06:00 +10°C° 0.2 mm 2 mps 614 mmHg 63%
    07:00 +10°C° 0.2 mm 2 mps 614 mmHg 63%
    08:00 +12°C° 0.3 mm 2 mps 615 mmHg 58%
    09:00 +13°C° 0.3 mm 2 mps 615 mmHg 53%
    10:00 +14°C° 0.3 mm 2 mps 615 mmHg 49%
    11:00 +14°C° 0.2 mm 3 mps 615 mmHg 46%
    12:00 +14°C° 0.2 mm 4 mps 615 mmHg 43%
    13:00 +15°C° 0.2 mm 4 mps 614 mmHg 41%
    14:00 +15°C° 0.1 mm 5 mps 614 mmHg 39%
    15:00 +15°C° 0.1 mm 5 mps 614 mmHg 37%
    16:00 +16°C° 0.1 mm 5 mps 614 mmHg 36%
    17:00 +15°C° 0.2 mm 4 mps 614 mmHg 40%
    18:00 +14°C° 0.2 mm 3 mps 613 mmHg 44%
    19:00 +13°C° 0.2 mm 3 mps 613 mmHg 48%
    20:00 +13°C° 0.3 mm 2 mps 613 mmHg 52%
    21:00 +12°C° 0.3 mm 2 mps 613 mmHg 56%
    22:00 +12°C° 0.3 mm 1 mps 613 mmHg 60%
    23:00 +11°C° 0.3 mm 1 mps 613 mmHg 62%
    Show more